DEFMD EDDC-EDDB

Flight info

Callsign DEFMD
Flight time N/A
Altitude
Route
Aircraft DR40

Departure

Time 2026-05-08 19:06
Airport Dresden Airport (EDDC)

Arrival

Time N/A
Airport Berlin Brandenburg Airport (EDDB)
Time Latitude Longitude Altitude Speed Heading
2026-05-08 18:59 51.12706 13.76864 745 ft 0 kts 40°
2026-05-08 18:59 51.12708 13.76872 718 ft 6 kts 94°
2026-05-08 19:00 51.12665 13.76850 746 ft 16 kts 223°
2026-05-08 19:00 51.12670 13.76682 747 ft 9 kts 274°
2026-05-08 19:00 51.12686 13.76596 746 ft 8 kts 310°
2026-05-08 19:00 51.12734 13.76546 746 ft 9 kts 339°
2026-05-08 19:01 51.12779 13.76481 745 ft 9 kts 311°
2026-05-08 19:01 51.12782 13.76377 744 ft 13 kts 222°
2026-05-08 19:01 51.12716 13.76287 745 ft 11 kts 220°
2026-05-08 19:01 51.12666 13.76220 746 ft 8 kts 220°
2026-05-08 19:02 51.12622 13.76160 748 ft 11 kts 220°
2026-05-08 19:02 51.12538 13.76046 749 ft 20 kts 222°
2026-05-08 19:02 51.12442 13.75911 757 ft 16 kts 220°
2026-05-08 19:02 51.12375 13.75816 758 ft 7 kts 237°
2026-05-08 19:03 51.12374 13.75745 759 ft 8 kts 296°
2026-05-08 19:03 51.12406 13.75630 759 ft 5 kts 292°
2026-05-08 19:03 51.12408 13.75620 759 ft 0 kts 292°
2026-05-08 19:04 51.12413 13.75603 758 ft 8 kts 298°
2026-05-08 19:04 51.12461 13.75517 762 ft 12 kts 321°
2026-05-08 19:05 51.12562 13.75599 759 ft 39 kts 41°
2026-05-08 19:05 51.12872 13.76032 835 ft 70 kts 41°
2026-05-08 19:05 51.13245 13.76535 1064 ft 70 kts 41°
2026-05-08 19:05 51.13671 13.76926 1262 ft 73 kts 13°
2026-05-08 19:06 51.14201 13.76829 1376 ft 83 kts 342°
2026-05-08 19:06 51.14714 13.76480 1383 ft 77 kts 339°
2026-05-08 19:06 51.15202 13.76148 1337 ft 75 kts 337°
2026-05-08 19:06 51.15690 13.75864 1385 ft 76 kts 338°
2026-05-08 19:07 51.16219 13.75673 1483 ft 78 kts 349°
2026-05-08 19:07 51.16752 13.75538 1598 ft 77 kts 346°
2026-05-08 19:07 51.17313 13.75364 1672 ft 90 kts 345°
2026-05-08 19:07 51.17978 13.75222 1737 ft 98 kts 352°
2026-05-08 19:08 51.18660 13.75111 1789 ft 100 kts 351°
2026-05-08 19:08 51.19359 13.74969 1799 ft 102 kts 348°
2026-05-08 19:08 51.20051 13.74743 1840 ft 101 kts 342°
2026-05-08 19:08 51.20732 13.74434 1840 ft 102 kts 341°
2026-05-08 19:09 51.21406 13.74102 1868 ft 100 kts 339°
2026-05-08 19:09 51.22064 13.73729 1891 ft 102 kts 336°
2026-05-08 19:09 51.22739 13.73287 1937 ft 107 kts 334°
2026-05-08 19:09 51.23425 13.72839 2011 ft 107 kts 338°
2026-05-08 19:10 51.24115 13.72428 2039 ft 104 kts 336°
2026-05-08 19:10 51.24782 13.71994 2076 ft 102 kts 334°
2026-05-08 19:10 51.25400 13.71488 2134 ft 100 kts 327°
2026-05-08 19:10 51.25964 13.70827 2151 ft 102 kts 319°
2026-05-08 19:11 51.26507 13.70068 2139 ft 104 kts 316°
2026-05-08 19:11 51.27036 13.69274 2136 ft 104 kts 314°
2026-05-08 19:11 51.27535 13.68451 2146 ft 103 kts 313°
2026-05-08 19:11 51.28054 13.67643 2146 ft 105 kts 314°
2026-05-08 19:12 51.28629 13.66926 2148 ft 106 kts 324°
2026-05-08 19:12 51.29258 13.66272 2100 ft 110 kts 324°
2026-05-08 19:12 51.29887 13.65568 2058 ft 110 kts 322°
2026-05-08 19:12 51.30503 13.64853 2013 ft 111 kts 324°
2026-05-08 19:13 51.31150 13.64171 1949 ft 111 kts 325°
2026-05-08 19:13 51.31758 13.63539 2142 ft 97 kts 326°
2026-05-08 19:13 51.32308 13.62990 2358 ft 89 kts 326°
2026-05-08 19:13 51.32804 13.62453 2563 ft 85 kts 317°
2026-05-08 19:14 51.33203 13.61732 2701 ft 88 kts 306°
2026-05-08 19:14 51.33555 13.60936 2865 ft 87 kts 302°
2026-05-08 19:14 51.33780 13.60412 2989 ft 85 kts 303°
2026-05-08 19:14 51.34114 13.59634 3168 ft 85 kts 302°
2026-05-08 19:15 51.34530 13.58583 3398 ft 83 kts 302°
2026-05-08 19:15 51.34881 13.57852 3571 ft 84 kts 315°
2026-05-08 19:15 51.35349 13.57252 3708 ft 87 kts 315°
2026-05-08 19:15 51.35742 13.56533 3864 ft 85 kts 306°
2026-05-08 19:16 51.35991 13.56037 3972 ft 85 kts 308°
2026-05-08 19:16 51.36375 13.55304 4100 ft 88 kts 308°
2026-05-08 19:16 51.36777 13.54550 4223 ft 90 kts 310°
2026-05-08 19:16 51.37191 13.53830 4377 ft 88 kts 311°
2026-05-08 19:17 51.37630 13.53084 4435 ft 94 kts 311°
2026-05-08 19:17 51.38102 13.52323 4504 ft 97 kts 313°
2026-05-08 19:17 51.38601 13.51568 4546 ft 101 kts 317°
2026-05-08 19:17 51.39148 13.50865 4587 ft 103 kts 321°
2026-05-08 19:18 51.39777 13.50276 4605 ft 106 kts 329°
2026-05-08 19:18 51.40413 13.49698 4640 ft 105 kts 326°
2026-05-08 19:18 51.41035 13.49100 4688 ft 103 kts 326°
2026-05-08 19:18 51.41637 13.48479 4735 ft 103 kts 324°
2026-05-08 19:19 51.42230 13.47836 4775 ft 103 kts 321°
2026-05-08 19:19 51.42809 13.47157 4811 ft 103 kts 322°
2026-05-08 19:19 51.43399 13.46498 4853 ft 103 kts 323°
2026-05-08 19:19 51.43989 13.45858 4941 ft 99 kts 324°
2026-05-08 19:20 51.44571 13.45310 5076 ft 94 kts 332°
2026-05-08 19:20 51.44966 13.45052 5191 ft 91 kts 338°
2026-05-08 19:20 51.45757 13.44663 5370 ft 89 kts 339°
2026-05-08 19:20 51.46339 13.44299 5462 ft 92 kts 337°
2026-05-08 19:21 51.46948 13.43977 5547 ft 94 kts 340°
2026-05-08 19:21 51.47584 13.43656 5616 ft 96 kts 338°
2026-05-08 19:21 51.48208 13.43402 5738 ft 92 kts 346°
2026-05-08 19:21 51.48865 13.43229 5755 ft 101 kts 348°
2026-05-08 19:22 51.49562 13.43068 5804 ft 100 kts 349°
2026-05-08 19:22 51.50258 13.42972 5860 ft 101 kts 357°
2026-05-08 19:22 51.50967 13.42982 5897 ft 102 kts 356°
2026-05-08 19:22 51.51681 13.42950 5928 ft 103 kts 358°
2026-05-08 19:23 51.52397 13.42986 5981 ft 103 kts
2026-05-08 19:23 51.53107 13.43106 6032 ft 103 kts
2026-05-08 19:23 51.53805 13.43382 6077 ft 103 kts 17°
2026-05-08 19:23 51.54445 13.43771 6208 ft 96 kts 18°
2026-05-08 19:24 51.55052 13.44187 6312 ft 95 kts 23°
2026-05-08 19:24 51.55622 13.44669 6453 ft 91 kts 26°
2026-05-08 19:24 51.56154 13.45173 6580 ft 85 kts 31°
2026-05-08 19:24 51.56621 13.45678 6711 ft 81 kts 31°
2026-05-08 19:25 51.57091 13.46265 6746 ft 90 kts 38°
2026-05-08 19:25 51.57554 13.46964 6832 ft 91 kts 44°
2026-05-08 19:25 51.57985 13.47682 6945 ft 89 kts 43°
2026-05-08 19:25 51.58436 13.48422 6970 ft 96 kts 44°
2026-05-08 19:26 51.58899 13.49218 6998 ft 99 kts 46°
2026-05-08 19:26 51.59376 13.50058 6995 ft 104 kts 44°
2026-05-08 19:26 51.59910 13.50872 6976 ft 107 kts 39°
2026-05-08 19:26 51.60438 13.51680 7060 ft 99 kts 46°
2026-05-08 19:27 51.60896 13.52524 7086 ft 102 kts 47°
2026-05-08 19:27 51.61364 13.53381 7129 ft 100 kts 47°
2026-05-08 19:27 51.61811 13.54237 7184 ft 99 kts 49°
2026-05-08 19:27 51.62237 13.55086 7264 ft 96 kts 50°
2026-05-08 19:28 51.62635 13.55934 7335 ft 95 kts 52°
2026-05-08 19:28 51.63029 13.56797 7380 ft 96 kts 51°
2026-05-08 19:28 51.63432 13.57653 7425 ft 96 kts 52°
2026-05-08 19:28 51.63832 13.58535 7444 ft 99 kts 51°
2026-05-08 19:29 51.64251 13.59416 7459 ft 100 kts 51°
2026-05-08 19:29 51.64670 13.60306 7486 ft 99 kts 51°
2026-05-08 19:29 51.65090 13.61158 7578 ft 93 kts 47°
2026-05-08 19:29 51.65502 13.61923 7669 ft 88 kts 46°
2026-05-08 19:30 51.65892 13.62671 7751 ft 86 kts 49°
2026-05-08 19:30 51.66254 13.63429 7807 ft 88 kts 52°
2026-05-08 19:30 51.66600 13.64282 7812 ft 94 kts 56°
2026-05-08 19:30 51.66987 13.65150 7829 ft 95 kts 45°
2026-05-08 19:31 51.67496 13.65786 7878 ft 92 kts 21°
2026-05-08 19:31 51.68128 13.65986 7876 ft 93 kts
2026-05-08 19:31 51.68761 13.65907 7913 ft 91 kts 344°
2026-05-08 19:31 51.69378 13.65603 7895 ft 93 kts 334°
2026-05-08 19:32 51.69948 13.65143 7933 ft 90 kts 327°
2026-05-08 19:32 51.70472 13.64627 7962 ft 89 kts 326°
2026-05-08 19:32 51.71015 13.64093 7941 ft 93 kts 327°
2026-05-08 19:32 51.71572 13.63555 7945 ft 93 kts 325°
2026-05-08 19:33 51.72099 13.62987 7963 ft 91 kts 322°
2026-05-08 19:33 51.72609 13.62399 7993 ft 89 kts 323°
2026-05-08 19:33 51.73137 13.61879 8012 ft 90 kts 328°
2026-05-08 19:33 51.73707 13.61399 7983 ft 94 kts 332°
2026-05-08 19:34 51.74301 13.60962 7993 ft 93 kts 334°
2026-05-08 19:34 51.74889 13.60545 8018 ft 91 kts 332°
2026-05-08 19:34 51.75494 13.60179 7993 ft 96 kts 340°
2026-05-08 19:34 51.76156 13.59872 7915 ft 102 kts 342°
2026-05-08 19:35 51.76861 13.59595 7813 ft 106 kts 349°
2026-05-08 19:35 51.77595 13.59485 7766 ft 106 kts 354°
2026-05-08 19:35 51.78332 13.59482 7703 ft 107 kts
2026-05-08 19:35 51.79076 13.59675 7633 ft 109 kts
2026-05-08 19:36 51.79809 13.59911 7602 ft 106 kts
2026-05-08 19:36 51.80542 13.60106 7552 ft 107 kts
2026-05-08 19:36 51.81286 13.60218 7495 ft 107 kts
2026-05-08 19:36 51.81802 13.60283 7493 ft 105 kts
2026-05-08 19:38 51.82148 13.60320 7489 ft 104 kts
2026-05-08 19:38 51.82871 13.60476 7454 ft 106 kts
2026-05-08 19:39 51.83607 13.60628 7390 ft 108 kts
2026-05-08 19:39 51.84362 13.60714 7312 ft 110 kts 359°
2026-05-08 19:39 51.85131 13.60702 7233 ft 110 kts 359°
2026-05-08 19:39 51.85871 13.60739 7276 ft 102 kts 358°
2026-05-08 19:40 51.86572 13.60783 7301 ft 100 kts
2026-05-08 19:40 51.87276 13.60825 7287 ft 102 kts 358°
2026-05-08 19:40 51.87997 13.60758 7238 ft 105 kts 350°
2026-05-08 19:40 51.88734 13.60678 7197 ft 107 kts
2026-05-08 19:41 51.89454 13.60814 6977 ft 100 kts
2026-05-08 19:41 51.90131 13.61019 6594 ft 101 kts 10°
2026-05-08 19:41 51.90892 13.61323 6164 ft 124 kts 12°
2026-05-08 19:41 51.91756 13.61704 5782 ft 131 kts 14°
2026-05-08 19:42 51.92626 13.62125 5450 ft 131 kts 15°
2026-05-08 19:42 51.93495 13.62588 5114 ft 131 kts 17°
2026-05-08 19:42 51.94348 13.63087 4815 ft 130 kts 19°
2026-05-08 19:42 51.95184 13.63608 4550 ft 127 kts 18°
2026-05-08 19:43 51.96013 13.64072 4311 ft 125 kts 16°
2026-05-08 19:43 51.96838 13.64497 4104 ft 123 kts 15°
2026-05-08 19:43 51.97652 13.64912 3929 ft 121 kts 15°
2026-05-08 19:43 51.98458 13.65318 3688 ft 120 kts 16°
2026-05-08 19:44 51.99208 13.65753 3193 ft 111 kts 18°
2026-05-08 19:44 51.99913 13.66215 2704 ft 108 kts 21°
2026-05-08 19:44 52.00627 13.66763 2191 ft 122 kts 25°
2026-05-08 19:44 52.01405 13.67350 2085 ft 122 kts 17°
2026-05-08 19:45 52.02209 13.67611 2070 ft 118 kts
2026-05-08 19:45 52.03025 13.67491 2026 ft 118 kts 347°
2026-05-08 19:45 52.03834 13.67243 1963 ft 119 kts 347°
2026-05-08 19:45 52.04661 13.66980 1873 ft 124 kts 347°
2026-05-08 19:46 52.05496 13.66691 1777 ft 119 kts 350°
2026-05-08 19:46 52.06288 13.66448 1810 ft 113 kts 351°
2026-05-08 19:46 52.07803 13.65893 1821 ft 114 kts 350°
2026-05-08 19:47 52.08577 13.65635 1722 ft 113 kts 351°
2026-05-08 19:47 52.09339 13.65441 1669 ft 109 kts 355°
2026-05-08 19:47 52.10090 13.65305 1634 ft 107 kts 355°
2026-05-08 19:47 52.10822 13.65173 1631 ft 105 kts 356°
2026-05-08 19:48 52.11538 13.65037 1641 ft 103 kts 353°
2026-05-08 19:48 52.12236 13.64808 1663 ft 102 kts 348°
2026-05-08 19:48 52.12923 13.64532 1684 ft 101 kts 348°
2026-05-08 19:48 52.13591 13.64226 1713 ft 101 kts 344°
2026-05-08 19:49 52.14256 13.63869 1739 ft 102 kts 345°
2026-05-08 19:49 52.14927 13.63488 1753 ft 103 kts 339°
2026-05-08 19:49 52.15584 13.63010 1772 ft 103 kts 339°
2026-05-08 19:49 52.16250 13.62568 1803 ft 103 kts 340°
2026-05-08 19:50 52.16929 13.62150 1783 ft 105 kts 345°
2026-05-08 19:50 52.17636 13.61823 1767 ft 106 kts 346°
2026-05-08 19:50 52.18338 13.61485 1770 ft 104 kts 345°
2026-05-08 19:50 52.19033 13.61124 1750 ft 105 kts 344°
2026-05-08 19:51 52.19730 13.60767 1743 ft 105 kts 345°
2026-05-08 19:51 52.20429 13.60427 1726 ft 105 kts 347°
2026-05-08 19:51 52.21130 13.60113 1731 ft 104 kts 346°
2026-05-08 19:51 52.21819 13.59785 1740 ft 102 kts 345°
2026-05-08 19:52 52.22495 13.59430 1761 ft 102 kts 345°
2026-05-08 19:52 52.23170 13.59053 1777 ft 103 kts 344°
2026-05-08 19:52 52.23861 13.58682 1750 ft 106 kts 345°
2026-05-08 19:52 52.24577 13.58322 1711 ft 107 kts 347°
2026-05-08 19:53 52.25288 13.57981 1723 ft 105 kts 346°
2026-05-08 19:53 52.25982 13.57633 1733 ft 105 kts 346°
2026-05-08 19:53 52.26681 13.57274 1729 ft 106 kts 345°
2026-05-08 19:53 52.27384 13.56912 1718 ft 106 kts 345°
2026-05-08 19:54 52.28072 13.56500 1737 ft 105 kts 340°
2026-05-08 19:54 52.28707 13.56001 1751 ft 94 kts 337°
2026-05-08 19:54 52.29281 13.55551 1706 ft 91 kts 337°
2026-05-08 19:54 52.29832 13.55030 1638 ft 90 kts 332°
2026-05-08 19:55 52.30354 13.54503 1610 ft 88 kts 330°
2026-05-08 19:55 52.30863 13.53963 1580 ft 87 kts 330°
2026-05-08 19:55 52.31369 13.53421 1534 ft 87 kts 331°
2026-05-08 19:55 52.31875 13.52899 1510 ft 85 kts 332°
2026-05-08 19:56 52.32375 13.52408 1501 ft 83 kts 332°
2026-05-08 19:56 52.32873 13.51904 1458 ft 85 kts 332°
2026-05-08 19:56 52.33372 13.51429 1455 ft 82 kts 333°
2026-05-08 19:56 52.33672 13.51032 1448 ft 83 kts 315°